Previsão horária em 10-y Oktyabr

Hoje, 27 Janeiro, Quarta-feira

Tempo Temperatura Precipitação Vento Pressão Humidade
00:00 -4°C° 0.2 mm 8 m/s 735 mmHg 94%
01:00 -4°C° 0.4 mm 8 m/s 735 mmHg 95%
02:00 -4°C° 0.4 mm 8 m/s 734 mmHg 95%
03:00 -4°C° 0.4 mm 8 m/s 734 mmHg 95%
04:00 -3°C° 0 mm 7 m/s 734 mmHg 93%
05:00 -3°C° 0 mm 7 m/s 734 mmHg 90%
06:00 -3°C° 0 mm 7 m/s 734 mmHg 88%
07:00 -4°C° 0 mm 6 m/s 734 mmHg 88%
08:00 -4°C° 0 mm 6 m/s 734 mmHg 89%
09:00 -5°C° 0 mm 6 m/s 734 mmHg 89%
10:00 -5°C° 0 mm 6 m/s 735 mmHg 89%
11:00 -5°C° 0 mm 5 m/s 735 mmHg 90%
12:00 -5°C° 0 mm 5 m/s 736 mmHg 90%
13:00 -4°C° 0 mm 4 m/s 735 mmHg 91%
14:00 -4°C° 0 mm 3 m/s 735 mmHg 91%
15:00 -4°C° 0 mm 3 m/s 735 mmHg 92%
16:00 -3°C° 0 mm 2 m/s 735 mmHg 92%
17:00 -3°C° 0 mm 2 m/s 735 mmHg 93%
18:00 -1°C° 0 mm 1 m/s 735 mmHg 93%
19:00 -1°C° 0 mm 1 m/s 735 mmHg 94%
20:00 -1°C° 0 mm 1 m/s 735 mmHg 94%
21:00 -2°C° 0 mm 0 m/s 735 mmHg 94%
22:00 -1°C° 0.1 mm 1 m/s 735 mmHg 94%
23:00 -1°C° 0.1 mm 1 m/s 735 mmHg 95%

Amanhã, 28 Janeiro, Quinta-feira

Tempo Temperatura Precipitação Vento Pressão Humidade
00:00 -1°C° 0.1 mm 1 m/s 735 mmHg 95%
01:00 -2°C° 0.2 mm 2 m/s 735 mmHg 96%
02:00 -2°C° 0.2 mm 2 m/s 735 mmHg 97%
03:00 -1°C° 0.2 mm 3 m/s 735 mmHg 97%
04:00 -1°C° 0.2 mm 3 m/s 734 mmHg 98%
05:00 -1°C° 0.2 mm 3 m/s 734 mmHg 99%
06:00 -1°C° 0.2 mm 4 m/s 734 mmHg 99%
07:00 -1°C° 0.4 mm 4 m/s 734 mmHg 99%
08:00 -1°C° 0.4 mm 4 m/s 734 mmHg 98%
09:00 -1°C° 0.4 mm 4 m/s 734 mmHg 98%
10:00 -1°C° 0 mm 4 m/s 734 mmHg 98%
11:00 -2°C° 0 mm 4 m/s 734 mmHg 97%
12:00 -2°C° 0 mm 5 m/s 733 mmHg 97%
13:00 -2°C° 0.1 mm 4 m/s 733 mmHg 98%
14:00 -2°C° 0.1 mm 4 m/s 733 mmHg 98%
15:00 -1°C° 0.1 mm 4 m/s 733 mmHg 99%
16:00 -2°C° 0.1 mm 5 m/s 733 mmHg 97%
17:00 -3°C° 0.1 mm 6 m/s 733 mmHg 96%
18:00 -3°C° 0.1 mm 6 m/s 733 mmHg 95%
19:00 -3°C° 0.1 mm 6 m/s 733 mmHg 94%
20:00 -2°C° 0.1 mm 5 m/s 733 mmHg 94%
21:00 -2°C° 0.1 mm 5 m/s 732 mmHg 93%
22:00 -2°C° 0 mm 5 m/s 732 mmHg 94%
23:00 -2°C° 0 mm 5 m/s 732 mmHg 94%

Depois de amanhã, 29 Janeiro, Sexta-feira

Tempo Temperatura Precipitação Vento Pressão Humidade
00:00 -2°C° 0 mm 5 m/s 732 mmHg 95%
01:00 -2°C° 0 mm 5 m/s 732 mmHg 95%
02:00 -2°C° 0 mm 4 m/s 732 mmHg 96%
03:00 -2°C° 0 mm 4 m/s 731 mmHg 97%
04:00 0°C° 0.2 mm 3 m/s 731 mmHg 98%
05:00 0°C° 0.2 mm 3 m/s 731 mmHg 98%
06:00 +1°C° 0.2 mm 2 m/s 730 mmHg 99%
07:00 +1°C° 0.5 mm 2 m/s 730 mmHg 99%
08:00 +1°C° 0.5 mm 2 m/s 730 mmHg 99%
09:00 -1°C° 0.5 mm 2 m/s 729 mmHg 99%
10:00 -1°C° 0.1 mm 2 m/s 729 mmHg 97%
11:00 -1°C° 0.1 mm 3 m/s 728 mmHg 96%
12:00 -1°C° 0.1 mm 3 m/s 728 mmHg 95%
13:00 -1°C° 0 mm 3 m/s 727 mmHg 93%
14:00 -2°C° 0 mm 3 m/s 726 mmHg 92%
15:00 -2°C° 0 mm 3 m/s 726 mmHg 90%
16:00 -4°C° 0 mm 3 m/s 725 mmHg 91%
17:00 -4°C° 0 mm 4 m/s 725 mmHg 92%
18:00 -5°C° 0 mm 4 m/s 724 mmHg 94%
19:00 -5°C° 0.1 mm 4 m/s 724 mmHg 94%
20:00 -4°C° 0.1 mm 4 m/s 723 mmHg 95%
21:00 -4°C° 0.1 mm 4 m/s 723 mmHg 96%
22:00 -5°C° 0.3 mm 5 m/s 723 mmHg 95%
23:00 -5°C° 0.3 mm 5 m/s 722 mmHg 95%

30 Janeiro, Sábado

Tempo Temperatura Precipitação Vento Pressão Humidade
00:00 -5°C° 0.3 mm 5 m/s 722 mmHg 95%
01:00 -6°C° 0.2 mm 5 m/s 722 mmHg 95%
02:00 -6°C° 0.2 mm 5 m/s 722 mmHg 95%
03:00 -7°C° 0.2 mm 5 m/s 722 mmHg 94%
04:00 -8°C° 0.3 mm 6 m/s 722 mmHg 94%
05:00 -8°C° 0.3 mm 6 m/s 722 mmHg 94%
06:00 -8°C° 0.3 mm 6 m/s 721 mmHg 94%
07:00 -8°C° 0.2 mm 6 m/s 722 mmHg 94%
08:00 -8°C° 0.2 mm 6 m/s 722 mmHg 94%
09:00 -8°C° 0.2 mm 7 m/s 723 mmHg 94%
10:00 -8°C° 0.1 mm 7 m/s 723 mmHg 93%
11:00 -8°C° 0.1 mm 7 m/s 724 mmHg 91%
12:00 -8°C° 0.1 mm 7 m/s 724 mmHg 90%
13:00 -8°C° 0 mm 7 m/s 725 mmHg 90%
14:00 -8°C° 0 mm 7 m/s 725 mmHg 89%
15:00 -8°C° 0 mm 7 m/s 726 mmHg 88%
16:00 -9°C° 0 mm 6 m/s 726 mmHg 89%
17:00 -9°C° 0 mm 6 m/s 727 mmHg 89%
18:00 -8°C° 0 mm 5 m/s 727 mmHg 90%
19:00 -10°C° 0 mm 5 m/s 728 mmHg 91%
20:00 -9°C° 0 mm 4 m/s 728 mmHg 91%
21:00 -9°C° 0 mm 4 m/s 728 mmHg 92%
22:00 -9°C° 0 mm 3 m/s 728 mmHg 92%
23:00 -9°C° 0 mm 3 m/s 728 mmHg 93%

31 Janeiro, Domingo

Tempo Temperatura Precipitação Vento Pressão Humidade
00:00 -8°C° 0 mm 2 m/s 728 mmHg 93%
01:00 -8°C° 0 mm 2 m/s 728 mmHg 94%
02:00 -7°C° 0 mm 2 m/s 728 mmHg 94%
03:00 -6°C° 0 mm 1 m/s 727 mmHg 95%
04:00 -6°C° 0.2 mm 1 m/s 727 mmHg 95%
05:00 -6°C° 0.2 mm 1 m/s 726 mmHg 96%
06:00 -6°C° 0.2 mm 1 m/s 726 mmHg 96%
07:00 -6°C° 0.3 mm 1 m/s 726 mmHg 96%
08:00 -4°C° 0.3 mm 1 m/s 726 mmHg 96%
09:00 -4°C° 0.3 mm 1 m/s 726 mmHg 96%
10:00 -6°C° 0.2 mm 2 m/s 726 mmHg 95%
11:00 -7°C° 0.2 mm 3 m/s 727 mmHg 94%
12:00 -8°C° 0.2 mm 4 m/s 727 mmHg 93%
13:00 -8°C° 0.1 mm 4 m/s 728 mmHg 92%
14:00 -8°C° 0.1 mm 5 m/s 728 mmHg 91%
15:00 -8°C° 0.1 mm 5 m/s 729 mmHg 90%
16:00 -8°C° 0 mm 5 m/s 730 mmHg 89%
17:00 -8°C° 0 mm 5 m/s 730 mmHg 89%
18:00 -8°C° 0 mm 5 m/s 731 mmHg 89%
19:00 -10°C° 0 mm 5 m/s 731 mmHg 88%
20:00 -10°C° 0 mm 5 m/s 732 mmHg 88%
21:00 -10°C° 0 mm 5 m/s 732 mmHg 87%
22:00 -11°C° 0 mm 5 m/s 732 mmHg 89%
23:00 -11°C° 0 mm 4 m/s 733 mmHg 92%

1 Fevereiro, Segunda-feira

Tempo Temperatura Precipitação Vento Pressão Humidade
00:00 -12°C° 0 mm 4 m/s 733 mmHg 94%
01:00 -12°C° 0 mm 4 m/s 733 mmHg 94%
02:00 -12°C° 0 mm 3 m/s 733 mmHg 94%
03:00 -12°C° 0 mm 3 m/s 734 mmHg 95%
04:00 -13°C° 0 mm 3 m/s 733 mmHg 95%
05:00 -13°C° 0 mm 3 m/s 733 mmHg 94%
06:00 -12°C° 0 mm 2 m/s 733 mmHg 94%
07:00 -10°C° 0 mm 2 m/s 733 mmHg 94%
08:00 -10°C° 0 mm 2 m/s 732 mmHg 94%
09:00 -9°C° 0 mm 1 m/s 732 mmHg 93%
10:00 -9°C° 0.1 mm 2 m/s 732 mmHg 93%
11:00 -8°C° 0.1 mm 2 m/s 731 mmHg 93%
12:00 -8°C° 0.1 mm 3 m/s 731 mmHg 92%
13:00 -9°C° 0.2 mm 4 m/s 729 mmHg 93%
14:00 -8°C° 0.2 mm 5 m/s 728 mmHg 93%
15:00 -9°C° 0.2 mm 6 m/s 727 mmHg 94%
16:00 -9°C° 1 mm 6 m/s 726 mmHg 94%
17:00 -11°C° 1 mm 7 m/s 726 mmHg 94%
18:00 -11°C° 1 mm 7 m/s 725 mmHg 94%
19:00 -11°C° 1.2 mm 8 m/s 725 mmHg 94%
20:00 -11°C° 1.2 mm 9 m/s 725 mmHg 93%
21:00 -11°C° 1.2 mm 9 m/s 725 mmHg 92%
22:00 -12°C° 0.4 mm 9 m/s 726 mmHg 92%
23:00 -12°C° 0.4 mm 9 m/s 727 mmHg 92%
Mostrar mais